Stündliche Wetter Barra dos Coqueiros

Heute, 25 Oktober, Sonntag

Zeit Temperatur Niederschläge Wind Luftdruck Luftfeuchtigkeit
00:00 +26°C° 0 mm 4 m/S 759 mmHg 83%
01:00 +26°C° 0 mm 4 m/S 758 mmHg 83%
02:00 +26°C° 0 mm 4 m/S 758 mmHg 84%
03:00 +26°C° 0 mm 4 m/S 758 mmHg 84%
04:00 +25°C° 0 mm 3 m/S 757 mmHg 85%
05:00 +26°C° 0 mm 3 m/S 758 mmHg 84%
06:00 +26°C° 0 mm 3 m/S 758 mmHg 84%
07:00 +26°C° 0 mm 3 m/S 759 mmHg 83%
08:00 +28°C° 0 mm 4 m/S 759 mmHg 76%
09:00 +29°C° 0 mm 4 m/S 759 mmHg 69%
10:00 +32°C° 0 mm 5 m/S 759 mmHg 62%
11:00 +32°C° 0 mm 5 m/S 758 mmHg 61%
12:00 +33°C° 0 mm 6 m/S 758 mmHg 60%
13:00 +33°C° 0 mm 6 m/S 757 mmHg 60%
14:00 +33°C° 0 mm 6 m/S 757 mmHg 63%
15:00 +32°C° 0 mm 7 m/S 756 mmHg 65%
16:00 +32°C° 0 mm 7 m/S 756 mmHg 68%
17:00 +30°C° 0 mm 7 m/S 756 mmHg 72%
18:00 +29°C° 0 mm 7 m/S 756 mmHg 76%
19:00 +28°C° 0 mm 7 m/S 756 mmHg 80%
20:00 +28°C° 0 mm 7 m/S 757 mmHg 81%
21:00 +27°C° 0 mm 6 m/S 757 mmHg 82%
22:00 +27°C° 0 mm 6 m/S 758 mmHg 83%
23:00 +27°C° 0 mm 6 m/S 758 mmHg 83%

Morgen, 26 Oktober, Montag

Zeit Temperatur Niederschläge Wind Luftdruck Luftfeuchtigkeit
00:00 +27°C° 0 mm 7 m/S 757 mmHg 84%
01:00 +27°C° 0 mm 7 m/S 757 mmHg 84%
02:00 +27°C° 0 mm 7 m/S 757 mmHg 85%
03:00 +26°C° 0 mm 6 m/S 756 mmHg 86%
04:00 +26°C° 0 mm 6 m/S 756 mmHg 87%
05:00 +26°C° 0 mm 6 m/S 757 mmHg 86%
06:00 +26°C° 0 mm 6 m/S 757 mmHg 85%
07:00 +26°C° 0 mm 5 m/S 757 mmHg 85%
08:00 +27°C° 0.1 mm 5 m/S 758 mmHg 80%
09:00 +28°C° 0.1 mm 5 m/S 758 mmHg 76%
10:00 +29°C° 0.1 mm 5 m/S 758 mmHg 71%
11:00 +30°C° 0 mm 5 m/S 757 mmHg 67%
12:00 +33°C° 0 mm 6 m/S 757 mmHg 62%
13:00 +34°C° 0 mm 6 m/S 756 mmHg 58%
14:00 +33°C° 0 mm 7 m/S 755 mmHg 61%
15:00 +32°C° 0 mm 8 m/S 755 mmHg 64%
16:00 +32°C° 0 mm 9 m/S 754 mmHg 67%
17:00 +31°C° 0 mm 8 m/S 755 mmHg 71%
18:00 +29°C° 0 mm 8 m/S 755 mmHg 74%
19:00 +28°C° 0 mm 8 m/S 755 mmHg 77%
20:00 +28°C° 0 mm 8 m/S 756 mmHg 78%
21:00 +28°C° 0 mm 8 m/S 756 mmHg 79%
22:00 +28°C° 0 mm 8 m/S 757 mmHg 79%
23:00 +27°C° 0 mm 7 m/S 757 mmHg 81%

übermorgen, 27 Oktober, Dienstag

Zeit Temperatur Niederschläge Wind Luftdruck Luftfeuchtigkeit
00:00 +27°C° 0 mm 6 m/S 757 mmHg 82%
01:00 +27°C° 0 mm 5 m/S 757 mmHg 84%
02:00 +26°C° 0 mm 4 m/S 757 mmHg 84%
03:00 +26°C° 0 mm 4 m/S 756 mmHg 84%
04:00 +26°C° 0 mm 4 m/S 756 mmHg 84%
05:00 +26°C° 0 mm 5 m/S 757 mmHg 81%
06:00 +27°C° 0 mm 5 m/S 757 mmHg 79%
07:00 +27°C° 0 mm 6 m/S 758 mmHg 76%
08:00 +28°C° 0 mm 5 m/S 758 mmHg 71%
09:00 +29°C° 0 mm 5 m/S 758 mmHg 66%
10:00 +30°C° 0 mm 5 m/S 758 mmHg 61%
11:00 +32°C° 0 mm 5 m/S 758 mmHg 59%
12:00 +33°C° 0 mm 6 m/S 757 mmHg 56%
13:00 +34°C° 0 mm 6 m/S 756 mmHg 54%
14:00 +33°C° 0 mm 7 m/S 756 mmHg 57%
15:00 +33°C° 0 mm 8 m/S 755 mmHg 60%
16:00 +32°C° 0 mm 9 m/S 755 mmHg 63%
17:00 +31°C° 0 mm 8 m/S 755 mmHg 67%
18:00 +29°C° 0 mm 8 m/S 755 mmHg 71%
19:00 +28°C° 0 mm 7 m/S 755 mmHg 74%
20:00 +28°C° 0 mm 7 m/S 756 mmHg 76%
21:00 +28°C° 0 mm 7 m/S 756 mmHg 78%
22:00 +27°C° 0 mm 7 m/S 757 mmHg 80%
23:00 +27°C° 0 mm 6 m/S 757 mmHg 81%

, 28 Oktober, Mittwoch

Zeit Temperatur Niederschläge Wind Luftdruck Luftfeuchtigkeit
00:00 +27°C° 0 mm 6 m/S 756 mmHg 81%
01:00 +27°C° 0 mm 6 m/S 756 mmHg 82%
02:00 +27°C° 0 mm 5 m/S 756 mmHg 83%
03:00 +26°C° 0 mm 5 m/S 756 mmHg 84%
04:00 +26°C° 0 mm 4 m/S 756 mmHg 85%
05:00 +26°C° 0 mm 5 m/S 756 mmHg 84%
06:00 +26°C° 0 mm 5 m/S 757 mmHg 82%
07:00 +27°C° 0 mm 6 m/S 757 mmHg 81%
08:00 +28°C° 0 mm 6 m/S 758 mmHg 75%
09:00 +29°C° 0 mm 6 m/S 758 mmHg 69%
10:00 +32°C° 0 mm 6 m/S 758 mmHg 62%
11:00 +32°C° 0 mm 6 m/S 758 mmHg 62%
12:00 +32°C° 0 mm 7 m/S 757 mmHg 61%
13:00 +32°C° 0 mm 8 m/S 757 mmHg 60%
14:00 +32°C° 0 mm 8 m/S 756 mmHg 61%
15:00 +32°C° 0 mm 8 m/S 756 mmHg 62%
16:00 +31°C° 0 mm 8 m/S 755 mmHg 64%
17:00 +29°C° 0 mm 8 m/S 755 mmHg 67%
18:00 +28°C° 0 mm 8 m/S 756 mmHg 71%
19:00 +28°C° 0 mm 7 m/S 756 mmHg 75%
20:00 +27°C° 0 mm 7 m/S 757 mmHg 76%
21:00 +27°C° 0 mm 7 m/S 757 mmHg 77%
22:00 +27°C° 0 mm 7 m/S 758 mmHg 78%
23:00 +27°C° 0 mm 7 m/S 757 mmHg 79%

28 Oktober, Mittwoch

Zeit Temperatur Niederschläge Wind Luftdruck Luftfeuchtigkeit
00:00 +27°C° 0 mm 6 m/S 756 mmHg 81%
01:00 +27°C° 0 mm 6 m/S 756 mmHg 82%
02:00 +27°C° 0 mm 5 m/S 756 mmHg 83%
03:00 +26°C° 0 mm 5 m/S 756 mmHg 84%
04:00 +26°C° 0 mm 4 m/S 756 mmHg 85%
05:00 +26°C° 0 mm 5 m/S 756 mmHg 84%
06:00 +26°C° 0 mm 5 m/S 757 mmHg 82%
07:00 +27°C° 0 mm 6 m/S 757 mmHg 81%
08:00 +28°C° 0 mm 6 m/S 758 mmHg 75%
09:00 +29°C° 0 mm 6 m/S 758 mmHg 69%
10:00 +32°C° 0 mm 6 m/S 758 mmHg 62%
11:00 +32°C° 0 mm 6 m/S 758 mmHg 62%
12:00 +32°C° 0 mm 7 m/S 757 mmHg 61%
13:00 +32°C° 0 mm 8 m/S 757 mmHg 60%
14:00 +32°C° 0 mm 8 m/S 756 mmHg 61%
15:00 +32°C° 0 mm 8 m/S 756 mmHg 62%
16:00 +31°C° 0 mm 8 m/S 755 mmHg 64%
17:00 +29°C° 0 mm 8 m/S 755 mmHg 67%
18:00 +28°C° 0 mm 8 m/S 756 mmHg 71%
19:00 +28°C° 0 mm 7 m/S 756 mmHg 75%
20:00 +27°C° 0 mm 7 m/S 757 mmHg 76%
21:00 +27°C° 0 mm 7 m/S 757 mmHg 77%
22:00 +27°C° 0 mm 7 m/S 758 mmHg 78%
23:00 +27°C° 0 mm 7 m/S 757 mmHg 79%

29 Oktober, Donnerstag

Zeit Temperatur Niederschläge Wind Luftdruck Luftfeuchtigkeit
00:00 +27°C° 0 mm 6 m/S 757 mmHg 80%
01:00 +26°C° 0 mm 6 m/S 757 mmHg 81%
02:00 +26°C° 0 mm 6 m/S 757 mmHg 82%
03:00 +26°C° 0 mm 5 m/S 756 mmHg 83%
04:00 +26°C° 0 mm 5 m/S 756 mmHg 84%
05:00 +26°C° 0 mm 5 m/S 757 mmHg 83%
06:00 +26°C° 0 mm 5 m/S 757 mmHg 82%
07:00 +26°C° 0 mm 5 m/S 758 mmHg 81%
08:00 +28°C° 0.1 mm 5 m/S 758 mmHg 75%
09:00 +29°C° 0.1 mm 6 m/S 759 mmHg 69%
10:00 +32°C° 0.1 mm 7 m/S 759 mmHg 63%
11:00 +32°C° 0 mm 7 m/S 759 mmHg 62%
12:00 +32°C° 0 mm 7 m/S 758 mmHg 61%
13:00 +33°C° 0 mm 7 m/S 758 mmHg 60%
14:00 +32°C° 0 mm 7 m/S 757 mmHg 61%
15:00 +32°C° 0 mm 7 m/S 757 mmHg 61%
16:00 +32°C° 0 mm 7 m/S 756 mmHg 61%
17:00 +30°C° 0 mm 7 m/S 757 mmHg 66%
18:00 +29°C° 0 mm 6 m/S 757 mmHg 71%
19:00 +28°C° 0 mm 6 m/S 758 mmHg 76%
20:00 +28°C° 0 mm 6 m/S 758 mmHg 78%
21:00 +27°C° 0 mm 6 m/S 759 mmHg 79%
22:00 +27°C° 0 mm 6 m/S 759 mmHg 81%
23:00 +27°C° 0 mm 6 m/S 759 mmHg 82%

30 Oktober, Freitag

Zeit Temperatur Niederschläge Wind Luftdruck Luftfeuchtigkeit
00:00 +27°C° 0 mm 6 m/S 759 mmHg 82%
01:00 +27°C° 0 mm 6 m/S 758 mmHg 83%
02:00 +26°C° 0 mm 5 m/S 758 mmHg 84%
03:00 +26°C° 0 mm 5 m/S 758 mmHg 85%
04:00 +26°C° 0 mm 5 m/S 758 mmHg 86%
05:00 +26°C° 0 mm 4 m/S 758 mmHg 85%
06:00 +26°C° 0 mm 4 m/S 759 mmHg 84%
07:00 +27°C° 0 mm 4 m/S 759 mmHg 83%
08:00 +28°C° 0.1 mm 5 m/S 760 mmHg 77%
09:00 +29°C° 0.1 mm 6 m/S 760 mmHg 71%
10:00 +30°C° 0.1 mm 7 m/S 760 mmHg 65%
11:00 +32°C° 0 mm 7 m/S 759 mmHg 64%
12:00 +32°C° 0 mm 6 m/S 759 mmHg 62%
13:00 +32°C° 0 mm 6 m/S 759 mmHg 61%
14:00 +32°C° 0 mm 7 m/S 758 mmHg 63%
15:00 +32°C° 0 mm 7 m/S 758 mmHg 65%
16:00 +30°C° 0 mm 7 m/S 757 mmHg 67%
17:00 +29°C° 0 mm 7 m/S 758 mmHg 72%
18:00 +29°C° 0 mm 6 m/S 758 mmHg 76%
19:00 +28°C° 0 mm 6 m/S 758 mmHg 81%
20:00 +27°C° 0 mm 6 m/S 759 mmHg 82%
21:00 +27°C° 0 mm 6 m/S 759 mmHg 82%
22:00 +27°C° 0 mm 6 m/S 760 mmHg 83%
23:00 +27°C° 0.1 mm 6 m/S 759 mmHg 84%
Mehr zeigen